| time (UTC) | temp F | wind direction | speed MPH | gust MPH | rain 1hr in | rain 24hr in | rain mn in | humidity % | barometer mb |
| 20260506210833 | 64 | 254 | 4.0 | 11.0 | 0.00 | 0.00 | 0.00 | 30 | 1018.1 |
| 20260506210328 | 64 | 245 | 4.0 | 12.0 | 0.00 | 0.00 | 0.00 | 31 | 1018.1 |
| 20260506205824 | 64 | 313 | 4.0 | 12.0 | 0.00 | 0.00 | 0.00 | 30 | 1018.3 |
| 20260506205324 | 64 | 210 | 4.0 | 9.0 | 0.00 | 0.00 | 0.00 | 30 | 1018.3 |
| 20260506205057 | 64 | 237 | 3.0 | 9.0 | 0.00 | 0.00 | 0.00 | 32 | 1018.4 |
| 20260506204325 | 64 | 216 | 3.0 | 9.0 | 0.00 | 0.00 | 0.00 | 34 | 1018.4 |
| 20260506203825 | 64 | 186 | 3.0 | 9.0 | 0.00 | 0.00 | 0.00 | 33 | 1018.4 |
| 20260506203552 | 64 | 303 | 3.0 | 9.0 | 0.00 | 0.00 | 0.00 | 33 | 1018.5 |
| 20260506202822 | 63 | 228 | 3.0 | 8.0 | 0.00 | 0.00 | 0.00 | 33 | 1018.5 |
| 20260506202322 | 63 | 318 | 3.0 | 11.0 | 0.00 | 0.00 | 0.00 | 35 | 1018.5 |
| 20260506201821 | 62 | 259 | 4.0 | 11.0 | 0.00 | 0.00 | 0.00 | 36 | 1018.5 |
| 20260506201320 | 62 | 224 | 5.0 | 12.0 | 0.00 | 0.00 | 0.00 | 36 | 1018.5 |
| 20260506200819 | 62 | 247 | 5.0 | 12.0 | 0.00 | 0.00 | 0.00 | 34 | 1018.6 |
| 20260506200315 | 62 | 228 | 4.0 | 12.0 | 0.00 | 0.00 | 0.00 | 33 | 1018.6 |
| 20260506195316 | 62 | 299 | 3.0 | 9.0 | 0.00 | 0.00 | 0.00 | 34 | 1018.6 |
| 20260506194815 | 62 | 282 | 3.0 | 10.0 | 0.00 | 0.00 | 0.00 | 34 | 1018.6 |
| 20260506194313 | 61 | 279 | 3.0 | 10.0 | 0.00 | 0.00 | 0.00 | 35 | 1018.7 |
| 20260506193815 | 61 | 212 | 3.0 | 10.0 | 0.00 | 0.00 | 0.00 | 35 | 1018.7 |
| 20260506193310 | 61 | 241 | 4.0 | 11.0 | 0.00 | 0.00 | 0.00 | 35 | 1018.8 |
| 20260506192810 | 61 | 254 | 4.0 | 11.0 | 0.00 | 0.00 | 0.00 | 35 | 1018.7 |
| 20260506192309 | 61 | 214 | 3.0 | 12.0 | 0.00 | 0.00 | 0.00 | 36 | 1018.8 |
| 20260506191810 | 61 | 236 | 4.0 | 12.0 | 0.00 | 0.00 | 0.00 | 35 | 1018.7 |
| 20260506191308 | 61 | 212 | 4.0 | 12.0 | 0.00 | 0.00 | 0.00 | 35 | 1018.8 |
| 20260506190304 | 61 | 323 | 2.0 | 9.0 | 0.00 | 0.00 | 0.00 | 36 | 1019.0 |
| 20260506185803 | 60 | 332 | 4.0 | 10.0 | 0.00 | 0.00 | 0.00 | 37 | 1019.0 |
| 20260506185306 | 59 | 244 | 4.0 | 11.0 | 0.00 | 0.00 | 0.00 | 36 | 1019.0 |
| 20260506185034 | 59 | 327 | 4.0 | 11.0 | 0.00 | 0.00 | 0.00 | 35 | 1019.1 |
| 20260506184302 | 59 | 283 | 4.0 | 11.0 | 0.00 | 0.00 | 0.00 | 37 | 1019.1 |
| 20260506183801 | 59 | 278 | 4.0 | 11.0 | 0.00 | 0.00 | 0.00 | 35 | 1019.1 |
| 20260506183258 | 59 | 295 | 3.0 | 11.0 | 0.00 | 0.00 | 0.00 | 35 | 1019.1 |
| 20260506182758 | 59 | 278 | 3.0 | 9.0 | 0.00 | 0.00 | 0.00 | 36 | 1019.2 |
| 20260506182300 | 59 | 223 | 3.0 | 10.0 | 0.00 | 0.00 | 0.00 | 37 | 1019.1 |
| 20260506181758 | 58 | 263 | 4.0 | 10.0 | 0.00 | 0.00 | 0.00 | 38 | 1019.1 |
| 20260506181527 | 58 | 272 | 4.0 | 10.0 | 0.00 | 0.00 | 0.00 | 39 | 1019.1 |
| 20260506181027 | 58 | 250 | 3.0 | 11.0 | 0.00 | 0.01 | 0.00 | 38 | 1019.1 |
| 20260506180522 | 59 | 254 | 2.0 | 11.0 | 0.00 | 0.01 | 0.00 | 39 | 1019.1 |
| 20260506175752 | 58 | 300 | 4.0 | 10.0 | 0.00 | 0.01 | 0.00 | 38 | 1019.2 |
| 20260506175252 | 58 | 296 | 3.0 | 10.0 | 0.00 | 0.02 | 0.00 | 38 | 1019.1 |
| 20260506174752 | 58 | 286 | 2.0 | 8.0 | 0.00 | 0.07 | 0.00 | 41 | 1019.1 |
| 20260506174250 | 58 | 303 | 2.0 | 11.0 | 0.00 | 0.07 | 0.00 | 38 | 1019.1 |
| 20260506173749 | 57 | 286 | 2.0 | 11.0 | 0.00 | 0.07 | 0.00 | 43 | 1019.1 |
| 20260506173242 | 57 | 247 | 3.0 | 11.0 | 0.00 | 0.07 | 0.00 | 41 | 1019.1 |
| 20260506172742 | 56 | 51 | 4.0 | 11.0 | 0.00 | 0.07 | 0.00 | 40 | 1019.2 |
| 20260506172244 | 56 | 53 | 3.0 | 10.0 | 0.00 | 0.07 | 0.00 | 41 | 1019.1 |
| 20260506171744 | 56 | 298 | 4.0 | 10.0 | 0.00 | 0.07 | 0.00 | 42 | 1019.1 |
| 20260506171244 | 55 | 293 | 4.0 | 11.0 | 0.00 | 0.07 | 0.00 | 43 | 1019.2 |
| 20260506170743 | 56 | 247 | 3.0 | 11.0 | 0.00 | 0.07 | 0.00 | 41 | 1019.1 |
| 20260506170240 | 56 | 277 | 3.0 | 9.0 | 0.00 | 0.07 | 0.00 | 41 | 1019.1 |
| 20260506165740 | 56 | 237 | 3.0 | 8.0 | 0.00 | 0.07 | 0.00 | 41 | 1019.1 |
| 20260506164740 | 56 | 280 | 2.0 | 6.0 | 0.00 | 0.07 | 0.00 | 42 | 1019.0 |
| 20260506164242 | 55 | 242 | 2.0 | 6.0 | 0.00 | 0.07 | 0.00 | 42 | 1019.0 |
| 20260506163742 | 55 | 6 | 2.0 | 6.0 | 0.00 | 0.07 | 0.00 | 43 | 1019.0 |
| 20260506163243 | 55 | 265 | 2.0 | 8.0 | 0.00 | 0.07 | 0.00 | 43 | 1018.8 |
| 20260506162508 | 54 | 304 | 3.0 | 10.0 | 0.00 | 0.07 | 0.00 | 42 | 1018.8 |
| 20260506161738 | 54 | 199 | 3.0 | 10.0 | 0.00 | 0.07 | 0.00 | 43 | 1018.8 |
| 20260506161238 | 54 | 332 | 2.0 | 9.0 | 0.00 | 0.07 | 0.00 | 41 | 1018.7 |
| 20260506160736 | 54 | 244 | 3.0 | 9.0 | 0.00 | 0.07 | 0.00 | 42 | 1018.7 |
| 20260506160507 | 54 | 228 | 3.0 | 9.0 | 0.00 | 0.07 | 0.00 | 41 | 1018.7 |
| 20260506160002 | 54 | 247 | 3.0 | 9.0 | 0.00 | 0.07 | 0.00 | 42 | 1018.7 |
| 20260506155229 | 55 | 38 | 1.0 | 6.0 | 0.00 | 0.07 | 0.00 | 46 | 1018.7 |
| 20260506154730 | 54 | 104 | 1.0 | 5.0 | 0.00 | 0.07 | 0.00 | 46 | 1018.7 |
| 20260506154229 | 53 | 22 | 2.0 | 5.0 | 0.00 | 0.07 | 0.00 | 47 | 1018.6 |
| 20260506154000 | 53 | 46 | 2.0 | 5.0 | 0.00 | 0.07 | 0.00 | 46 | 1018.6 |
| 20260506153229 | 53 | 265 | 1.0 | 7.0 | 0.00 | 0.07 | 0.00 | 46 | 1018.6 |
| 20260506152728 | 53 | 38 | 1.0 | 7.0 | 0.00 | 0.07 | 0.00 | 47 | 1018.6 |
| 20260506152227 | 53 | 330 | 1.0 | 7.0 | 0.00 | 0.07 | 0.00 | 48 | 1018.5 |
| 20260506151727 | 52 | 337 | 2.0 | 7.0 | 0.00 | 0.07 | 0.00 | 47 | 1018.5 |
| 20260506151225 | 53 | 274 | 1.0 | 7.0 | 0.00 | 0.07 | 0.00 | 45 | 1018.5 |
| 20260506150724 | 53 | 269 | 1.0 | 3.0 | 0.00 | 0.07 | 0.00 | 53 | 1018.4 |
| 20260506150224 | 52 | 150 | 1.0 | 3.0 | 0.00 | 0.07 | 0.00 | 53 | 1018.4 |
| 20260506145718 | 51 | 84 | 1.0 | 3.0 | 0.00 | 0.07 | 0.00 | 57 | 1018.4 |
| 20260506145216 | 51 | 86 | 0.0 | 2.0 | 0.00 | 0.07 | 0.00 | 59 | 1018.4 |
| 20260506144945 | 50 | 112 | 0.0 | 2.0 | 0.00 | 0.07 | 0.00 | 62 | 1018.4 |
| 20260506144212 | 49 | 96 | 0.0 | 2.0 | 0.00 | 0.07 | 0.00 | 64 | 1018.4 |
| 20260506143712 | 47 | 96 | 0.0 | 1.0 | 0.00 | 0.07 | 0.00 | 68 | 1018.3 |
| 20260506143205 | 46 | 96 | 0.0 | 1.0 | 0.00 | 0.07 | 0.00 | 69 | 1018.4 |
| 20260506142705 | 45 | 96 | 1.0 | 3.0 | 0.00 | 0.08 | 0.00 | 72 | 1018.3 |
| 20260506142206 | 44 | 95 | 1.0 | 3.0 | 0.00 | 0.08 | 0.00 | 74 | 1018.3 |
| 20260506141936 | 43 | 107 | 1.0 | 3.0 | 0.00 | 0.09 | 0.00 | 77 | 1018.3 |
| 20260506141437 | 42 | 128 | 1.0 | 4.0 | 0.00 | 0.09 | 0.00 | 79 | 1018.3 |
| 20260506140705 | 41 | 119 | 2.0 | 4.0 | 0.00 | 0.09 | 0.00 | 79 | 1018.3 |
| 20260506140200 | 41 | 91 | 2.0 | 4.0 | 0.00 | 0.09 | 0.00 | 79 | 1018.3 |
| 20260506135659 | 40 | 97 | 1.0 | 4.0 | 0.00 | 0.09 | 0.00 | 81 | 1018.3 |
| 20260506135159 | 40 | 118 | 0.0 | 2.0 | 0.00 | 0.09 | 0.00 | 84 | 1018.4 |
| 20260506134700 | 39 | 148 | 0.0 | 2.0 | 0.00 | 0.09 | 0.00 | 85 | 1018.3 |
| 20260506134159 | 38 | 148 | 0.0 | 2.0 | 0.00 | 0.09 | 0.00 | 86 | 1018.3 |
| 20260506133700 | 37 | 143 | 0.0 | 2.0 | 0.00 | 0.09 | 0.00 | 87 | 1018.1 |
| 20260506133156 | 37 | 136 | 0.0 | 2.0 | 0.00 | 0.09 | 0.00 | 88 | 1018.0 |
| 20260506132655 | 36 | 136 | 0.0 | 2.0 | 0.00 | 0.09 | 0.00 | 89 | 1018.0 |
| 20260506132424 | 35 | 133 | 0.0 | 3.0 | 0.00 | 0.09 | 0.00 | 90 | 1017.9 |
| 20260506131653 | 35 | 150 | 0.0 | 3.0 | 0.00 | 0.09 | 0.00 | 91 | 1017.9 |
| 20260506131425 | 34 | 84 | 0.0 | 3.0 | 0.00 | 0.09 | 0.00 | 91 | 1017.8 |
| 20260506130654 | 33 | 84 | 0.0 | 3.0 | 0.00 | 0.09 | 0.00 | 92 | 1017.8 |
| 20260506130148 | 31 | 94 | 1.0 | 3.0 | 0.00 | 0.09 | 0.00 | 92 | 1017.7 |
| 20260506125648 | 30 | 153 | 1.0 | 3.0 | 0.00 | 0.09 | 0.00 | 92 | 1017.5 |
| 20260506125419 | 29 | 131 | 1.0 | 3.0 | 0.00 | 0.09 | 0.00 | 91 | 1017.4 |
| 20260506124648 | 29 | 127 | 0.0 | 2.0 | 0.00 | 0.09 | 0.00 | 91 | 1017.4 |
| 20260506124147 | 30 | 144 | 0.0 | 2.0 | 0.00 | 0.09 | 0.00 | 91 | 1017.3 |
| 20260506123647 | 30 | 144 | 0.0 | 2.0 | 0.00 | 0.09 | 0.00 | 91 | 1017.3 |
| 20260506123143 | 30 | 119 | 0.0 | 2.0 | 0.00 | 0.09 | 0.00 | 91 | 1017.3 |
| 20260506122644 | 29 | 119 | 0.0 | 2.0 | 0.00 | 0.09 | 0.00 | 90 | 1017.2 |
| 20260506122144 | 30 | 143 | 0.0 | 3.0 | 0.00 | 0.09 | 0.00 | 90 | 1017.0 |
| 20260506121644 | 30 | 143 | 0.0 | 3.0 | 0.00 | 0.09 | 0.00 | 90 | 1017.0 |
| 20260506121142 | 30 | 143 | 1.0 | 4.0 | 0.00 | 0.09 | 0.00 | 90 | 1017.0 |
| 20260506120643 | 31 | 120 | 2.0 | 5.0 | 0.00 | 0.09 | 0.00 | 90 | 1017.0 |
| 20260506120407 | 31 | 131 | 1.0 | 5.0 | 0.00 | 0.09 | 0.00 | 90 | 1017.0 |
| 20260506115636 | 31 | 124 | 1.0 | 3.0 | 0.00 | 0.09 | 0.00 | 90 | 1017.0 |
| 20260506115135 | 31 | 116 | 0.0 | 3.0 | 0.00 | 0.09 | 0.00 | 89 | 1017.0 |
| 20260506114636 | 31 | 107 | 1.0 | 6.0 | 0.00 | 0.09 | 0.00 | 89 | 1017.0 |
| 20260506114136 | 32 | 106 | 2.0 | 6.0 | 0.00 | 0.09 | 0.00 | 89 | 1017.0 |
| 20260506113907 | 32 | 107 | 2.0 | 7.0 | 0.00 | 0.09 | 0.00 | 89 | 1017.0 |
| 20260506113132 | 32 | 88 | 2.0 | 7.0 | 0.00 | 0.09 | 0.00 | 90 | 1017.0 |
| 20260506112631 | 32 | 100 | 2.0 | 4.0 | 0.00 | 0.09 | 0.00 | 90 | 1017.0 |
| 20260506112130 | 32 | 118 | 1.0 | 5.0 | 0.00 | 0.09 | 0.00 | 89 | 1017.0 |
| 20260506111630 | 32 | 91 | 1.0 | 5.0 | 0.00 | 0.09 | 0.00 | 89 | 1017.0 |
| 20260506111130 | 32 | 83 | 1.0 | 5.0 | 0.00 | 0.09 | 0.00 | 89 | 1017.0 |
| 20260506110629 | 32 | 117 | 1.0 | 5.0 | 0.00 | 0.09 | 0.00 | 90 | 1016.8 |
| 20260506110126 | 32 | 81 | 1.0 | 5.0 | 0.00 | 0.09 | 0.00 | 89 | 1017.0 |
| 20260506105626 | 32 | 121 | 1.0 | 4.0 | 0.00 | 0.09 | 0.00 | 88 | 1017.0 |
| 20260506105356 | 32 | 144 | 2.0 | 5.0 | 0.00 | 0.09 | 0.00 | 88 | 1017.0 |
| 20260506104623 | 33 | 133 | 2.0 | 5.0 | 0.00 | 0.09 | 0.00 | 89 | 1016.8 |
| 20260506104355 | 33 | 96 | 2.0 | 5.0 | 0.00 | 0.09 | 0.00 | 89 | 1016.8 |
| 20260506103623 | 33 | 87 | 2.0 | 5.0 | 0.00 | 0.09 | 0.00 | 89 | 1016.8 |
| 20260506103119 | 33 | 87 | 2.0 | 5.0 | 0.00 | 0.09 | 0.00 | 89 | 1016.7 |
| 20260506102620 | 33 | 90 | 2.0 | 5.0 | 0.00 | 0.09 | 0.00 | 89 | 1016.7 |
| 20260506102118 | 32 | 97 | 2.0 | 4.0 | 0.00 | 0.09 | 0.00 | 89 | 1016.7 |
| 20260506101850 | 33 | 94 | 3.0 | 4.0 | 0.00 | 0.09 | 0.00 | 88 | 1016.7 |
| 20260506101117 | 33 | 98 | 3.0 | 4.0 | 0.00 | 0.09 | 0.00 | 88 | 1016.7 |
| 20260506100849 | 33 | 100 | 2.0 | 4.0 | 0.00 | 0.09 | 0.00 | 88 | 1016.7 |
| 20260506100343 | 33 | 112 | 2.0 | 4.0 | 0.00 | 0.09 | 0.00 | 88 | 1016.7 |
| 20260506095611 | 33 | 79 | 2.0 | 4.0 | 0.00 | 0.09 | 0.00 | 88 | 1016.7 |
| 20260506095112 | 33 | 103 | 2.0 | 4.0 | 0.00 | 0.09 | 0.00 | 89 | 1016.7 |
| 20260506094612 | 33 | 115 | 1.0 | 4.0 | 0.00 | 0.09 | 0.00 | 89 | 1016.6 |
| 20260506094110 | 33 | 117 | 1.0 | 4.0 | 0.00 | 0.09 | 0.00 | 88 | 1016.6 |
| 20260506093609 | 33 | 89 | 1.0 | 4.0 | 0.00 | 0.09 | 0.00 | 88 | 1016.6 |
| 20260506093106 | 33 | 145 | 1.0 | 4.0 | 0.00 | 0.09 | 0.00 | 87 | 1016.6 |
| 20260506092606 | 33 | 140 | 1.0 | 4.0 | 0.00 | 0.09 | 0.00 | 86 | 1016.5 |
| 20260506092105 | 33 | 113 | 1.0 | 5.0 | 0.00 | 0.09 | 0.00 | 85 | 1016.5 |
| 20260506091605 | 34 | 138 | 2.0 | 5.0 | 0.00 | 0.09 | 0.00 | 84 | 1016.5 |
| 20260506091104 | 35 | 146 | 3.0 | 6.0 | 0.00 | 0.09 | 0.00 | 85 | 1016.4 |
| 20260506090603 | 35 | 72 | 3.0 | 6.0 | 0.00 | 0.09 | 0.00 | 87 | 1016.4 |
| 20260506090057 | 35 | 89 | 4.0 | 7.0 | 0.00 | 0.09 | 0.00 | 88 | 1016.4 |
| 20260506085558 | 34 | 91 | 3.0 | 7.0 | 0.00 | 0.09 | 0.00 | 90 | 1016.4 |
| 20260506085057 | 33 | 79 | 2.0 | 4.0 | 0.00 | 0.09 | 0.00 | 89 | 1016.4 |
| 20260506084558 | 33 | 98 | 1.0 | 3.0 | 0.00 | 0.09 | 0.00 | 88 | 1016.4 |
| 20260506084330 | 33 | 109 | 1.0 | 3.0 | 0.00 | 0.09 | 0.00 | 87 | 1016.4 |
| 20260506083559 | 33 | 105 | 1.0 | 3.0 | 0.00 | 0.09 | 0.00 | 87 | 1016.2 |
| 20260506083054 | 34 | 113 | 2.0 | 5.0 | 0.00 | 0.09 | 0.00 | 87 | 1016.2 |
| 20260506082553 | 34 | 100 | 2.0 | 5.0 | 0.00 | 0.09 | 0.00 | 86 | 1016.2 |
| 20260506082052 | 34 | 106 | 2.0 | 5.0 | 0.00 | 0.09 | 0.00 | 85 | 1016.2 |
| 20260506081551 | 35 | 132 | 3.0 | 5.0 | 0.00 | 0.09 | 0.00 | 85 | 1016.4 |
| 20260506081052 | 35 | 87 | 2.0 | 6.0 | 0.00 | 0.09 | 0.00 | 86 | 1016.4 |
| 20260506080551 | 35 | 112 | 2.0 | 6.0 | 0.00 | 0.09 | 0.00 | 87 | 1016.4 |
| 20260506080315 | 35 | 93 | 1.0 | 4.0 | 0.00 | 0.09 | 0.00 | 87 | 1016.2 |
| 20260506073043 | 34 | 114 | 0.0 | 1.0 | 0.00 | 0.09 | 0.00 | 87 | 1016.4 |
| 20260506072543 | 35 | 113 | 0.0 | 1.0 | 0.00 | 0.09 | 0.00 | 87 | 1016.4 |
| 20260506072316 | 35 | 114 | 0.0 | 1.0 | 0.00 | 0.09 | 0.00 | 87 | 1016.4 |
| 20260506071541 | 35 | 106 | 0.0 | 3.0 | 0.00 | 0.09 | 0.00 | 86 | 1016.4 |
| 20260506071040 | 35 | 106 | 0.0 | 3.0 | 0.00 | 0.09 | 0.00 | 86 | 1016.4 |
| 20260506070541 | 35 | 151 | 0.0 | 3.0 | 0.00 | 0.09 | 0.00 | 87 | 1016.5 |
| 20260506062026 | 36 | 265 | 0.0 | 0.0 | 0.00 | 0.09 | 0.09 | 85 | 1016.2 |
| 20260506061756 | 36 | 265 | 0.0 | 0.0 | 0.00 | 0.09 | 0.09 | 84 | 1016.1 |
| 20260506061024 | 36 | 264 | 0.0 | 0.0 | 0.00 | 0.09 | 0.09 | 84 | 1016.1 |
| 20260506060523 | 37 | 265 | 0.0 | 0.0 | 0.00 | 0.09 | 0.09 | 84 | 1016.1 |
| 20260506051005 | 39 | 265 | 0.0 | 0.0 | 0.00 | 0.09 | 0.09 | 79 | 1015.9 |
| 20260506050459 | 39 | 265 | 0.0 | 0.0 | 0.00 | 0.09 | 0.09 | 78 | 1015.9 |
| 20260506044954 | 40 | 264 | 0.0 | 0.0 | 0.00 | 0.09 | 0.09 | 76 | 1015.8 |
| 20260506044729 | 40 | 265 | 0.0 | 1.0 | 0.00 | 0.09 | 0.09 | 75 | 1015.8 |
| 20260506043954 | 40 | 264 | 0.0 | 1.0 | 0.00 | 0.09 | 0.09 | 74 | 1015.8 |
| 20260506043450 | 41 | 264 | 0.0 | 1.0 | 0.00 | 0.09 | 0.09 | 73 | 1015.8 |
| 20260506042951 | 41 | 264 | 0.0 | 1.0 | 0.00 | 0.09 | 0.09 | 73 | 1015.6 |
| 20260506042451 | 41 | 265 | 0.0 | 1.0 | 0.00 | 0.09 | 0.09 | 71 | 1015.6 |
| 20260506041944 | 42 | 264 | 0.0 | 1.0 | 0.00 | 0.09 | 0.09 | 70 | 1015.5 |
| 20260506041443 | 42 | 265 | 0.0 | 1.0 | 0.00 | 0.09 | 0.09 | 69 | 1015.5 |
| 20260506040942 | 43 | 265 | 0.0 | 1.0 | 0.00 | 0.09 | 0.09 | 68 | 1015.4 |
| 20260506040444 | 43 | 265 | 0.0 | 0.0 | 0.00 | 0.09 | 0.09 | 66 | 1015.4 |
| 20260506035944 | 44 | 264 | 0.0 | 0.0 | 0.00 | 0.09 | 0.09 | 64 | 1015.3 |
| 20260506035442 | 44 | 264 | 0.0 | 0.0 | 0.00 | 0.09 | 0.09 | 63 | 1015.3 |
| 20260506034942 | 45 | 264 | 0.0 | 0.0 | 0.00 | 0.09 | 0.09 | 62 | 1015.2 |
| 20260506034442 | 46 | 265 | 0.0 | 0.0 | 0.00 | 0.09 | 0.09 | 61 | 1015.1 |
| 20260506033941 | 46 | 265 | 0.0 | 0.0 | 0.00 | 0.09 | 0.09 | 60 | 1015.1 |
| 20260506033442 | 46 | 264 | 0.0 | 0.0 | 0.00 | 0.09 | 0.09 | 59 | 1014.8 |
| 20260506032440 | 46 | 265 | 0.0 | 0.0 | 0.00 | 0.09 | 0.09 | 58 | 1014.7 |
| 20260506031938 | 46 | 265 | 0.0 | 0.0 | 0.00 | 0.09 | 0.09 | 57 | 1014.6 |
| 20260506031705 | 47 | 264 | 0.0 | 4.0 | 0.00 | 0.09 | 0.09 | 57 | 1014.5 |
| 20260506031207 | 47 | 265 | 0.0 | 4.0 | 0.00 | 0.09 | 0.09 | 56 | 1014.5 |
| 20260506030434 | 47 | 264 | 0.0 | 4.0 | 0.00 | 0.09 | 0.09 | 55 | 1014.3 |
| 20260506025934 | 47 | 261 | 0.0 | 4.0 | 0.00 | 0.09 | 0.09 | 55 | 1014.3 |
| 20260506025706 | 47 | 281 | 0.0 | 3.0 | 0.00 | 0.09 | 0.09 | 54 | 1014.2 |
| 20260506024936 | 48 | 254 | 0.0 | 7.0 | 0.00 | 0.09 | 0.09 | 53 | 1014.1 |
| 20260506023926 | 48 | 243 | 1.0 | 8.0 | 0.00 | 0.09 | 0.09 | 51 | 1014.0 |
| 20260506023424 | 49 | 235 | 2.0 | 8.0 | 0.00 | 0.09 | 0.09 | 51 | 1013.9 |
| 20260506022925 | 49 | 227 | 1.0 | 7.0 | 0.00 | 0.09 | 0.09 | 50 | 1013.9 |
| 20260506022421 | 49 | 233 | 1.0 | 7.0 | 0.00 | 0.09 | 0.09 | 50 | 1013.7 |
| 20260506021922 | 49 | 271 | 1.0 | 8.0 | 0.00 | 0.09 | 0.09 | 49 | 1013.7 |
| 20260506021417 | 49 | 264 | 1.0 | 8.0 | 0.00 | 0.09 | 0.09 | 49 | 1013.6 |
| 20260506021148 | 49 | 248 | 1.0 | 8.0 | 0.00 | 0.09 | 0.09 | 48 | 1013.6 |
| 20260506020418 | 50 | 276 | 1.0 | 8.0 | 0.00 | 0.09 | 0.09 | 48 | 1013.5 |
| 20260506015914 | 50 | 250 | 2.0 | 9.0 | 0.00 | 0.09 | 0.09 | 47 | 1013.4 |
| 20260506015412 | 51 | 245 | 2.0 | 9.0 | 0.00 | 0.09 | 0.09 | 47 | 1013.3 |
| 20260506014912 | 51 | 257 | 2.0 | 9.0 | 0.00 | 0.09 | 0.09 | 47 | 1013.4 |
| 20260506014410 | 51 | 225 | 2.0 | 9.0 | 0.00 | 0.09 | 0.09 | 47 | 1013.3 |
| 20260506013910 | 52 | 244 | 1.0 | 7.0 | 0.00 | 0.09 | 0.09 | 47 | 1013.3 |
| 20260506013411 | 52 | 261 | 1.0 | 7.0 | 0.00 | 0.09 | 0.09 | 46 | 1013.3 |
| 20260506012906 | 52 | 187 | 1.0 | 7.0 | 0.00 | 0.09 | 0.09 | 46 | 1013.2 |
| 20260506012403 | 53 | 237 | 2.0 | 8.0 | 0.00 | 0.09 | 0.09 | 45 | 1013.2 |
| 20260506011902 | 53 | 235 | 3.0 | 8.0 | 0.00 | 0.09 | 0.09 | 44 | 1013.2 |
| 20260506011403 | 53 | 238 | 3.0 | 8.0 | 0.00 | 0.09 | 0.09 | 44 | 1013.2 |
| 20260506011132 | 54 | 266 | 3.0 | 8.0 | 0.00 | 0.09 | 0.09 | 43 | 1013.0 |
| 20260506010402 | 54 | 277 | 3.0 | 9.0 | 0.00 | 0.09 | 0.09 | 43 | 1013.2 |
| 20260506005900 | 54 | 162 | 3.0 | 11.0 | 0.00 | 0.09 | 0.09 | 43 | 1012.9 |
| 20260506005632 | 55 | 296 | 2.0 | 11.0 | 0.00 | 0.09 | 0.09 | 44 | 1012.9 |
| 20260506004900 | 54 | 210 | 3.0 | 9.0 | 0.00 | 0.09 | 0.09 | 44 | 1012.8 |
| 20260506004356 | 54 | 217 | 3.0 | 9.0 | 0.00 | 0.09 | 0.09 | 42 | 1012.8 |
| 20260506004127 | 54 | 251 | 3.0 | 8.0 | 0.00 | 0.09 | 0.09 | 44 | 1012.7 |
| 20260506003353 | 54 | 228 | 2.0 | 13.0 | 0.00 | 0.09 | 0.09 | 44 | 1012.8 |
| 20260506002852 | 54 | 160 | 2.0 | 13.0 | 0.00 | 0.09 | 0.09 | 44 | 1012.7 |
| 20260506002350 | 54 | 231 | 2.0 | 14.0 | 0.00 | 0.09 | 0.09 | 45 | 1012.7 |
| 20260506001851 | 55 | 224 | 3.0 | 14.0 | 0.00 | 0.09 | 0.09 | 44 | 1012.7 |
| 20260506001344 | 56 | 167 | 3.0 | 10.0 | 0.00 | 0.09 | 0.09 | 43 | 1012.6 |
| 20260506000844 | 57 | 231 | 3.0 | 11.0 | 0.00 | 0.09 | 0.09 | 41 | 1012.4 |
| 20260506000342 | 56 | 247 | 3.0 | 11.0 | 0.00 | 0.09 | 0.09 | 43 | 1012.4 |
| 20260505235842 | 56 | 280 | 3.0 | 11.0 | 0.00 | 0.09 | 0.09 | 43 | 1012.3 |
| 20260505235342 | 56 | 196 | 4.0 | 12.0 | 0.00 | 0.09 | 0.09 | 44 | 1012.3 |
| 20260505234844 | 56 | 247 | 4.0 | 12.0 | 0.00 | 0.09 | 0.09 | 42 | 1012.3 |
| 20260505234343 | 56 | 217 | 3.0 | 11.0 | 0.00 | 0.09 | 0.09 | 43 | 1012.2 |
| 20260505234113 | 55 | 231 | 3.0 | 12.0 | 0.00 | 0.09 | 0.09 | 44 | 1012.2 |
| 20260505233610 | 56 | 273 | 3.0 | 12.0 | 0.00 | 0.09 | 0.09 | 41 | 1012.2 |
| 20260505232842 | 56 | 255 | 4.0 | 17.0 | 0.00 | 0.09 | 0.09 | 42 | 1012.2 |
| 20260505232340 | 56 | 165 | 4.0 | 17.0 | 0.00 | 0.09 | 0.09 | 42 | 1012.3 |
| 20260505231332 | 56 | 252 | 4.0 | 10.0 | 0.00 | 0.09 | 0.09 | 41 | 1012.2 |
| 20260505230832 | 56 | 221 | 4.0 | 10.0 | 0.00 | 0.09 | 0.09 | 40 | 1012.2 |
| 20260505230332 | 56 | 257 | 3.0 | 12.0 | 0.00 | 0.09 | 0.09 | 40 | 1012.1 |
| 20260505225829 | 56 | 213 | 3.0 | 12.0 | 0.00 | 0.09 | 0.09 | 42 | 1012.1 |
| 20260505224830 | 57 | 161 | 2.0 | 14.0 | 0.00 | 0.09 | 0.09 | 42 | 1012.3 |
| 20260505224559 | 56 | 220 | 4.0 | 15.0 | 0.00 | 0.09 | 0.09 | 40 | 1012.2 |
| 20260505223830 | 56 | 234 | 5.0 | 15.0 | 0.00 | 0.09 | 0.09 | 38 | 1012.2 |
| 20260505223329 | 56 | 123 | 4.0 | 12.0 | 0.00 | 0.09 | 0.09 | 39 | 1012.4 |
| 20260505222828 | 56 | 230 | 3.0 | 11.0 | 0.00 | 0.09 | 0.09 | 45 | 1012.2 |
| 20260505222329 | 55 | 192 | 3.0 | 11.0 | 0.00 | 0.09 | 0.09 | 44 | 1012.3 |
| 20260505221824 | 55 | 160 | 4.0 | 11.0 | 0.00 | 0.09 | 0.09 | 43 | 1012.4 |
| 20260505221326 | 56 | 230 | 3.0 | 12.0 | 0.00 | 0.09 | 0.09 | 41 | 1012.6 |
| 20260505220826 | 56 | 227 | 3.0 | 12.0 | 0.00 | 0.09 | 0.09 | 43 | 1012.6 |
| 20260505220326 | 55 | 148 | 4.0 | 14.0 | 0.00 | 0.09 | 0.09 | 47 | 1012.6 |
| 20260505215826 | 55 | 164 | 3.0 | 14.0 | 0.00 | 0.09 | 0.09 | 45 | 1012.7 |
| 20260505215326 | 56 | 217 | 4.0 | 15.0 | 0.00 | 0.09 | 0.09 | 42 | 1012.8 |
| 20260505214821 | 56 | 250 | 4.0 | 15.0 | 0.00 | 0.09 | 0.09 | 45 | 1012.7 |
| 20260505214320 | 55 | 213 | 4.0 | 15.0 | 0.00 | 0.09 | 0.09 | 48 | 1012.8 |
| 20260505213820 | 55 | 186 | 4.0 | 15.0 | 0.00 | 0.09 | 0.09 | 49 | 1012.8 |
| 20260505213320 | 55 | 164 | 4.0 | 15.0 | 0.00 | 0.09 | 0.09 | 52 | 1012.8 |
| 20260505212820 | 54 | 242 | 2.0 | 12.0 | 0.00 | 0.09 | 0.09 | 58 | 1012.8 |
| 20260505212554 | 53 | 150 | 3.0 | 12.0 | 0.00 | 0.09 | 0.09 | 59 | 1013.0 |
| 20260505211817 | 53 | 145 | 4.0 | 12.0 | 0.00 | 0.09 | 0.09 | 55 | 1013.0 |